Location: Bonac
(42.8765°N, 0.9753°E)
Time: 19:12:51
(UTC+00:00)

Cosmos 1953 - Pass Details

Date: 19 April 2026
Orbit: 471 x 483 km, 82.5° (Epoch: 12 May)

Event Time Altitude Azimuth Distance (km) Brightness Sun altitude
Rises 19:11:00 0° 223° (SW) 2,511 6.0 -5.7°
Reaches altitude 10° 19:13:35 10° 243° (WSW) 1,642 5.4 -6.1°
Maximum altitude 19:16:05 18° 288° (WNW) 1,245 5.6 -6.5°
Drops below altitude 10° 19:18:37 10° 332° (NNW) 1,657 5.6 -7.0°
Sets 19:21:15 0° 352° (N) 2,545 6.2 -7.4°
